This demonstration page uses our WeatherBlox Daily Observations layout. Learn more.

Hourly Observations for April 11, 2016

Temp ( °F °C ) Dew Point ( °F °C ) Humidity (%) Winds ( mph kmh ) Pressure ( in mb ) Visibility ( mi km ) Precip ( " mm )
12:15 am 00:15 Mostly Cloudy 44 6.9 39 3.9 81 81 Calm 30 1016 10 16.0934 0 0
12:35 am 00:35 Cloudy 44 6.5 39 3.7 83 83 NW 6 9 30 1016 10 16.0934 0 0
12:55 am 00:55 Cloudy 44 6.5 39 3.7 83 83 NW 6 9 30 1016 10 16.0934 0 0
1:15 am 01:15 Mostly Cloudy 46 7.5 40 4.3 80 80 NNW 7 11 30 1016 10 16.0934 0 0
1:35 am 01:35 Partly Cloudy 45 7.2 40 4.3 82 82 NNW 8 13 30 1016 10 16.0934 0 0
1:55 am 01:55 Partly Cloudy 45 7.3 40 4.3 81 81 N 12 19 30 1016 10 16.0934 0 0
2:15 am 02:15 Partly Cloudy 44 6.9 39 3.8 81 81 N 9 15 30.03 1017 10 16.0934 0 0
2:35 am 02:35 Mostly Cloudy 44 6.5 37 2.9 78 78 NNE 12 19 30.03 1017 10 16.0934 0 0
2:55 am 02:55 Cloudy 44 6.5 35 1.8 72 72 NE 12 19 30.03 1017 10 16.0934 0 0
3:15 am 03:15 Cloudy 44 6.7 34 1 67 67 NE 10 17 30.06 1018 10 16.0934 0 0
3:35 am 03:35 Cloudy 44 6.7 33 0.5 65 65 NE 10 17 30.06 1018 10 16.0934 0 0
3:55 am 03:55 Cloudy 44 6.5 32 0 64 64 ENE 12 19 30.09 1019 10 16.0934 0 0
4:15 am 04:15 Cloudy 43 6.1 31 -0.7 62 62 NE 12 19 30.12 1020 10 16.0934 0 0
4:35 am 04:35 Cloudy 42 5.8 28 -2.2 57 57 NE 13 20 30.12 1020 10 16.0934 0 0
4:55 am 04:55 Mostly Cloudy 41 5.2 27 -2.6 57 57 NE 13 20 30.12 1020 10 16.0934 0 0
5:15 am 05:15 Partly Cloudy 40 4.2 27 -2.8 61 61 NE 10 17 30.15 1021 10 16.0934 0 0
5:35 am 05:35 Partly Cloudy 38 3.4 27 -3 63 63 NNE 9 15 30.18 1022 10 16.0934 0 0
5:55 am 05:55 Partly Cloudy 36 2.2 26 -3.3 67 67 NNE 8 13 30.18 1022 10 16.0934 0 0
6:15 am 06:15 Partly Cloudy 35 1.5 25 -3.7 69 69 NNE 9 15 30.18 1022 10 16.0934 0 0
6:35 am 06:35 Clear 34 1.2 26 -3.5 71 71 NNE 9 15 30.18 1022 10 16.0934 0 0
6:55 am 06:55 Partly Cloudy 33 0.8 25 -3.7 72 72 NNE 9 15 30.21 1023 10 16.0934 0 0
7:15 am 07:15 Mostly Cloudy 33 0.7 26 -3.6 73 73 NNE 9 15 30.24 1024 10 16.0934 0 0
7:35 am 07:35 Cloudy 35 1.8 26 -3.5 68 68 NNE 5 7 30.21 1023 10 16.0934 0 0
7:55 am 07:55 Cloudy 36 2.2 26 -3.3 67 67 Calm 30.21 1023 10 16.0934 0 0
8:15 am 08:15 Cloudy 37 2.5 26 -3.5 65 65 NE 5 7 30.24 1024 10 16.0934 0 0
8:35 am 08:35 Cloudy 37 2.7 26 -3.5 64 64 NNE 6 9 30.21 1023 10 16.0934 0 0
8:55 am 08:55 Cloudy 38 3.2 24 -4.3 58 58 NNE 10 17 30.24 1024 10 16.0934 0 0
9:15 am 09:15 Cloudy 38 3.6 24 -4.4 56 56 NE 13 20 30.24 1024 10 16.0934 0 0
9:35 am 09:35 Cloudy 39 3.8 23 -4.8 54 54 NNE 12 19 30.24 1024 10 16.0934 0 0
9:55 am 09:55 Cloudy 40 4.7 21 -6.2 45 45 NNE 14 22 30.21 1023 10 16.0934 0 0
10:15 am 10:15 Mostly Cloudy 43 6.1 22 -5.8 43 43 NNE 15 24 30.21 1023 10 16.0934 0 0
10:35 am 10:35 Partly Cloudy 44 6.7 22 -5.8 41 41 NNE 13 20 30.21 1023 10 16.0934 0 0
10:55 am 10:55 Partly Cloudy 46 7.7 22 -5.8 38 38 NNE 12 19 30.18 1022 10 16.0934 0 0
11:15 am 11:15 Partly Cloudy 46 7.9 21 -6 37 37 NE 13 20 30.18 1022 10 16.0934 0 0
11:35 am 11:35 Sunny 48 8.9 21 -6.2 34 34 NNE 12 19 30.18 1022 10 16.0934 0 0
11:55 am 11:55 Sunny 49 9.7 20 -6.4 32 32 NNE 12 19 30.18 1022 10 16.0934 0 0
12:15 pm 12:15 Sunny 52 10.9 20 -6.5 29 29 NNE 10 17 30.15 1021 10 16.0934 0 0
12:35 pm 12:35 Sunny 52 10.9 21 -6.3 30 30 N 12 19 30.15 1021 10 16.0934 0 0
12:55 pm 12:55 Sunny 52 11.3 20 -6.5 28 28 NE 7 11 30.15 1021 10 16.0934 0 0
1:15 pm 13:15 Sunny 53 11.5 21 -6.2 29 29 NE 8 13 30.15 1021 10 16.0934 0 0
1:35 pm 13:35 Sunny 54 12.2 22 -5.5 29 29 NNE 12 19 30.15 1021 10 16.0934 0 0
1:55 pm 13:55 Sunny 54 12.2 21 -6 28 28 N 3 6 30.15 1021 10 16.0934 0 0
2:15 pm 14:15 Sunny 55 12.6 22 -5.7 28 28 NE 9 15 30.15 1021 10 16.0934 0 0
2:35 pm 14:35 Sunny 55 13 22 -5.8 27 27 NE 3 6 30.12 1020 10 16.0934 0 0
2:55 pm 14:55 Sunny 57 13.8 22 -5.4 26 26 NNE 9 15 30.09 1019 10 16.0934 0 0
3:15 pm 15:15 Sunny 56 13.4 23 -5.2 27 27 Calm 30.12 1020 10 16.0934 0 0
3:35 pm 15:35 Sunny 58 14.2 24 -4.5 27 27 NNE 5 7 30.09 1019 10 16.0934 0 0
3:55 pm 15:55 Sunny 58 14.2 24 -4.4 27 27 NE 3 6 30.09 1019 10 16.0934 0 0
4:15 pm 16:15 Sunny 58 14.4 24 -4.3 27 27 N 8 13 30.09 1019 10 16.0934 0 0
4:35 pm 16:35 Sunny 58 14.3 25 -3.8 29 29 NE 9 15 30.09 1019 10 16.0934 0 0
4:55 pm 16:55 Partly Cloudy 58 14.5 25 -4 28 28 ENE 7 11 30.09 1019 10 16.0934 0 0
5:15 pm 17:15 Sunny 58 14.6 25 -4 28 28 NE 5 7 30.09 1019 10 16.0934 0 0
5:35 pm 17:35 Sunny 58 14.3 25 -4 28 28 E 3 6 30.09 1019 10 16.0934 0 0
5:55 pm 17:55 Sunny 58 14.5 25 -3.8 28 28 ENE 5 7 30.09 1019 10 16.0934 0 0
6:15 pm 18:15 Sunny 58 14.2 25 -3.7 29 29 ENE 7 11 30.09 1019 10 16.0934 0 0
6:35 pm 18:35 Sunny 57 14.1 25 -3.9 29 29 E 7 11 30.09 1019 10 16.0934 0 0
6:55 pm 18:55 Sunny 57 13.7 25 -4 29 29 ENE 6 9 30.12 1020 10 16.0934 0 0
7:15 pm 19:15 Sunny 56 13.2 25 -3.8 31 31 E 6 9 30.12 1020 10 16.0934 0 0
7:35 pm 19:35 Sunny 53 11.9 25 -4 33 33 E 8 13 30.12 1020 10 16.0934 0 0
7:55 pm 19:55 Mostly Cloudy 53 11.5 24 -4.4 33 33 E 8 13 30.12 1020 10 16.0934 0 0
8:15 pm 20:15 Cloudy 52 11 23 -4.8 33 33 E 10 17 30.12 1020 10 16.0934 0 0
8:35 pm 20:35 Cloudy 49 9.7 23 -5.1 35 35 ESE 9 15 30.15 1021 10 16.0934 0 0
8:55 pm 20:55 Mostly Cloudy 47 8.5 23 -5 38 38 ESE 8 13 30.15 1021 7 11.26538 0 0
9:15 pm 21:15 Partly Cloudy 45 7.1 23 -5.1 42 42 ESE 8 13 30.21 1023 7 11.26538 0 0
9:35 pm 21:35 Clear 42 5.7 23 -5.2 46 46 ESE 9 15 30.21 1023 10 16.0934 0 0
9:55 pm 21:55 Clear 41 5.1 22 -5.5 47 47 ESE 9 15 30.21 1023 10 16.0934 0 0
10:15 pm 22:15 Clear 42 5.3 22 -5.5 46 46 ESE 8 13 30.21 1023 10 16.0934 0 0
10:35 pm 22:35 Clear 40 4.6 22 -5.5 48 48 ESE 7 11 30.24 1024 10 16.0934 0 0
10:55 pm 22:55 Partly Cloudy 38 3.6 22 -5.6 51 51 ESE 8 13 30.27 1025 10 16.0934 0 0
11:15 pm 23:15 Mostly Cloudy 41 5 22 -5.5 47 47 SE 7 11 30.24 1024 10 16.0934 0 0
11:35 pm 23:35 Cloudy 40 4.7 22 -5.4 48 48 SE 8 13 30.24 1024 10 16.0934 0 0
11:55 pm 23:55 Cloudy 42 5.4 22 -5.5 46 46 SE 8 13 30.24 1024 10 16.0934 0 0

Powered by AerisWeather